Location: Cactus School
(34.5700°N, 118.0931°W)
Time: 03:19:46
(UTC-08:00)

Hubble Space Telescope - Visible Passes

Search period start: 21 February 2018 00:00
Search period end: 03 March 2018 00:00
Orbit: 537 x 541 km, 28.5° (Epoch: 20 February)

Date Brightness Start Highest point End Pass type
(mag) Time Alt. Az. Time Alt. Az. Time Alt. Az.
21 Feb 3.3 04:07:37 16° SE 04:07:37 16° SE 04:09:02 10° ESE visible
21 Feb 2.0 05:43:01 10° WSW 05:46:46 33° S 05:50:32 10° ESE visible
22 Feb 3.5 03:57:58 15° ESE 03:57:58 15° ESE 03:58:56 10° ESE visible
22 Feb 1.9 05:33:20 14° WSW 05:36:27 35° S 05:40:14 10° ESE visible
23 Feb 3.8 03:48:18 12° ESE 03:48:18 12° ESE 03:48:46 10° ESE visible
23 Feb 1.8 05:23:39 18° WSW 05:26:08 35° S 05:29:55 10° ESE visible
24 Feb 1.8 05:13:57 23° SW 05:15:49 34° S 05:19:35 10° ESE visible
25 Feb 1.8 05:04:15 27° SW 05:05:30 33° S 05:09:13 10° ESE visible
26 Feb 1.8 04:54:33 30° SSW 04:55:10 31° S 04:58:50 10° SE visible
27 Feb 2.0 04:44:53 28° S 04:44:53 28° S 04:48:24 10° SE visible
28 Feb 2.4 04:35:15 24° S 04:35:15 24° S 04:37:55 10° SE visible
01 Mar 2.8 04:25:40 18° SSE 04:25:40 18° SSE 04:27:23 10° SE visible
02 Mar 3.3 04:16:08 13° SSE 04:16:08 13° SSE 04:16:46 10° SSE visible
